Location: ECC Obs
(38.4314°N, 90.9815°W)
Time: 00:43:19
(UTC-06:00)

Envisat - Visible Passes

Search period start: 28 February 2020 00:00
Search period end: 09 March 2020 01:00
Orbit: 764 x 766 km, 98.1° (Epoch: 27 February)

Date Brightness Start Highest point End Pass type
(mag) Time Alt. Az. Time Alt. Az. Time Alt. Az.
28 Feb 5.3 05:54:10 10° NE 05:58:35 29° E 06:02:59 10° SSE visible
28 Feb 5.5 18:46:34 10° SSW 18:50:46 26° W 18:55:00 10° NW visible
29 Feb 6.5 05:19:20 10° ENE 05:21:28 13° E 05:23:38 10° ESE visible
01 Mar 6.3 19:13:45 10° SW 19:16:28 14° W 19:19:12 10° WNW visible
02 Mar 5.8 05:43:12 10° NE 05:47:13 23° E 05:51:11 10° SE visible
02 Mar 5.0 18:34:51 10° SSW 18:39:24 33° W 18:43:59 10° NNW visible
04 Mar 6.1 19:01:33 10° SW 19:05:03 19° W 19:08:35 10° NW visible
05 Mar 6.1 05:32:23 10° NE 05:35:49 18° E 05:39:14 10° SE visible
05 Mar 4.5 18:23:16 10° S 18:28:03 42° W 18:32:52 10° NNW visible
07 Mar 5.2 05:56:56 10° NNE 06:01:29 32° E 06:05:59 10° SSE visible
07 Mar 5.7 18:49:37 10° SSW 18:53:40 24° W 18:57:44 10° NW visible
08 Mar 6.3 06:21:48 10° ENE 06:24:24 14° E 06:26:59 10° ESE visible
